Location: Acequia del Cap
(41.7000°N, 0.6167°E)
Time: 16:57:51
(UTC+00:00)

SJ 16-02 - Pass Details

Date: 07 August 2020
Orbit: 607 x 616 km, 75.0° (Epoch: 23 September)

Event Time Altitude Azimuth Distance (km) Brightness Sun altitude
Exits shadow 03:02:19 30° 274° (W) 1,115 2.3 -18.8°
Maximum altitude 03:03:07 32° 295° (WNW) 1,064 2.4 -18.7°
Drops below altitude 10° 03:07:05 10° 359° (N) 1,979 4.5 -18.2°
Sets 03:09:32 0° 10° (N) 2,886 5.7 -17.8°
